Find Starlink 11455

NORAD ID: 62463 Int'l Des: 2024-254 Owner: SPXS Country: US Constellation: starlink operational
LEOCIRCULAR

当前视图

正在加载3D地球...

About Starlink 11455

Starlink 11455 (NORAD 62463) is a starlink constellation satellite (v2 mini d2c) launched Dec 31, 2024 by SPXS of US. It operates in LEO, CIRCULAR orbit with a mass of 960.00 kg.

关于 Starlink 11455

正在加载描述...

即将过境

Passes for default location (London). Set your location on the main map for personalized predictions.

高度历史

Loading altitude history...

两行轨道根数

1 62463U 24254B 26167.54632776 .00261223 00000-0 19795-2 0 9999
2 62463 42.9993 347.5708 0001872 269.9165 90.1488 15.70797436 84943
Epoch: Jun 16, 2026 • Age: 9 hours

当前状态

高度 358.5 km
速度 7.70 km/s
星下点 35.04°N, 150.77°E
发射日期 Dec 31, 2024
运行时间 1.4 years
类型 internet

技术详情

分类 Payload
质量 960.00 kg
干质量 910.00 kg
总质量 960.00 kg
长度 0.30 m
直径 4.10 m
跨度 29.00 m
形状 Box + pan
制造商 SPXS
平台类型 Starlink V2MD
阶段状态 In Orbit
所有者/国家 SPXS/US

Most Searched